Theta_e
314 319 322 320 323 325 323 320 319 324 323 320 321 320 319 318 316 315 314 310 306 309 311 309 308 308 307 307 307 306 301 299 300 298 298 298 297 296 295 295 295 294 294 294 293 292 292 292 292 291 291 291 291 290 290 290 290 289 289 289 288 288 287 287 286 285 285 286 286 286 286 286 286 286 285 285 284 284 283 283 282 282 282 283 284 285
312 319 321 320 322 324 324 318 314 316 314 314 317 316 316 316 315 313 310 309 308 308 311 311 310 309 307 307 307 306 305 304 302 299 299 299 297 296 296 295 295 295 294 294 292 291 291 292 291 291 291 291 290 290 290 290 290 289 289 289 288 288 287 286 286 285 286 286 286 286 286 286 286 285 285 285 284 283 283 282 282 282 282 283 284 284
318 320 320 320 317 314 315 311 311 315 313 315 317 316 317 315 315 314 309 308 307 307 312 312 310 309 308 308 307 307 307 307 305 302 302 301 299 298 297 296 295 295 295 294 292 291 290 290 291 290 290 290 290 290 290 290 289 289 288 288 288 287 287 286 285 285 286 285 285 285 285 285 285 285 285 285 284 284 284 283 283 283 283 283 284 284
322 323 318 315 313 314 313 309 311 315 314 316 317 317 319 316 316 318 314 309 307 307 310 311 308 308 309 308 308 309 307 308 307 305 303 302 301 300 299 298 296 296 295 294 293 291 290 289 290 289 289 290 290 290 290 290 289 288 288 288 288 287 286 286 285 285 285 284 284 284 284 284 284 284 284 284 284 283 284 284 284 283 283 283 284 284
321 320 309 307 311 317 317 310 310 313 316 319 317 315 318 318 317 318 315 311 311 310 307 309 312 312 314 313 312 312 307 306 306 305 304 302 301 301 300 299 298 297 296 295 293 292 290 289 289 289 289 289 289 289 290 290 289 289 288 288 287 287 286 286 285 285 284 284 283 283 283 283 283 283 283 283 283 282 282 283 282 282 282 282 283 283
319 312 307 310 309 314 318 315 314 316 318 323 321 317 316 319 317 315 313 312 317 319 309 310 315 314 317 318 316 316 312 310 308 306 305 303 300 300 300 299 298 298 297 296 294 293 291 290 289 289 288 288 288 289 289 290 289 289 289 288 287 287 286 286 285 284 284 283 283 283 282 282 282 282 282 282 281 281 281 281 281 281 281 281 282 282
316 306 308 317 314 313 316 317 317 315 316 321 320 316 313 313 314 312 313 313 320 321 310 310 318 316 315 317 322 321 317 315 313 310 309 305 302 300 299 299 299 298 297 296 295 293 292 290 289 289 288 288 288 288 289 290 289 289 289 288 287 287 286 285 285 284 283 283 283 282 282 281 281 281 282 282 281 280 281 281 281 280 281 281 282 282
313 308 309 314 315 315 314 317 317 313 318 322 315 313 315 313 314 315 312 312 316 314 310 312 314 314 314 315 320 320 317 315 312 312 311 308 305 302 300 300 299 298 297 296 296 294 292 291 290 289 289 288 288 288 289 289 289 289 288 288 287 287 286 285 284 284 283 283 282 282 281 281 280 280 281 281 280 280 280 280 280 279 280 281 281 281
312 314 315 313 314 316 315 318 315 312 318 319 308 309 314 314 315 315 312 312 311 309 313 315 309 311 316 315 314 313 314 316 315 316 315 311 309 304 301 300 299 299 298 297 296 294 293 292 290 290 289 288 288 288 289 289 289 289 288 288 287 286 286 285 284 283 283 283 282 281 281 280 280 280 280 279 279 279 279 279 279 278 279 280 281 281
311 312 313 315 317 317 316 312 307 312 316 310 304 308 311 311 312 312 312 312 312 311 316 316 309 312 317 315 313 310 312 316 316 317 315 311 309 306 303 301 299 299 298 297 296 295 294 292 291 290 289 289 288 288 289 289 289 288 288 287 287 286 286 285 284 283 283 282 281 281 280 280 280 279 279 279 278 278 278 278 277 277 278 279 280 280
308 304 306 313 315 313 312 305 302 310 310 305 309 316 316 312 308 309 312 312 314 317 317 314 310 312 316 316 314 312 315 319 319 317 315 312 312 309 304 302 300 299 298 297 296 295 293 292 291 290 289 288 288 288 289 289 289 288 288 287 287 286 285 285 284 283 282 282 281 281 280 279 279 279 278 278 278 278 277 277 277 278 279 279 279 279
309 307 310 312 310 309 311 308 304 304 304 307 316 320 319 318 313 314 316 314 317 320 317 313 308 309 314 315 313 313 314 316 319 320 321 321 320 316 310 304 300 299 298 297 296 295 293 292 291 290 289 288 287 287 288 288 288 288 288 287 287 286 285 285 284 283 282 282 281 280 280 279 279 278 278 277 277 277 277 276 277 278 279 280 279 278
315 313 312 309 306 309 317 316 309 305 305 310 318 321 321 321 320 322 320 317 320 320 313 307 307 309 312 312 311 311 312 313 313 314 318 321 322 320 316 309 302 299 298 297 296 295 293 292 290 289 289 288 287 287 287 288 288 288 288 287 287 286 285 285 284 283 282 282 281 280 279 279 278 278 277 277 277 276 276 276 276 277 278 278 278 277
320 314 310 309 309 311 316 316 315 314 309 309 317 321 322 323 326 329 324 317 317 318 310 304 308 312 311 311 313 310 311 314 312 309 311 315 317 316 313 308 305 301 298 297 296 294 293 292 290 289 289 288 287 287 287 287 288 288 287 287 287 286 285 284 284 283 282 282 281 280 279 279 278 278 277 276 276 276 275 275 276 276 276 276 276 276
320 317 313 313 314 311 311 313 317 317 310 308 315 316 318 326 329 329 327 320 317 321 313 305 310 316 312 313 317 312 309 310 311 309 308 309 310 309 306 304 304 302 298 295 295 294 293 292 290 289 289 288 288 287 286 287 287 287 287 287 287 286 285 284 283 283 282 281 281 280 279 279 278 278 277 276 276 275 275 276 276 276 276 275 276 276
316 318 316 309 309 309 309 312 312 313 311 309 312 313 316 321 319 317 319 316 317 320 316 310 313 315 311 312 315 312 310 310 310 310 309 310 308 305 304 304 303 301 298 295 294 294 292 291 290 289 289 288 287 287 286 287 287 287 287 287 287 286 285 284 283 282 282 281 280 279 279 278 278 277 276 276 276 275 276 277 276 276 276 275 275 276
316 319 313 305 307 306 305 308 309 312 313 310 310 314 314 312 314 318 316 310 311 317 317 315 315 312 309 311 312 311 312 313 311 309 309 310 308 305 305 304 303 301 299 296 294 293 292 290 289 289 288 288 287 287 286 287 287 287 287 287 287 286 284 284 283 282 281 281 280 279 279 278 278 277 276 276 276 275 277 277 277 276 276 276 275 275
319 318 313 308 313 305 298 303 307 306 309 312 316 314 309 308 313 319 320 317 316 318 319 318 315 311 310 311 309 309 311 312 310 309 309 308 306 305 305 304 303 301 299 296 294 292 292 290 289 289 288 288 287 287 287 287 287 288 288 287 287 285 284 283 282 281 281 280 280 279 279 278 277 276 276 276 275 275 277 277 277 276 276 276 275 275
318 315 315 308 309 304 297 304 310 304 301 309 313 308 308 315 316 316 318 319 319 319 320 319 313 310 311 311 312 312 313 312 310 309 307 306 306 305 304 303 301 300 298 296 294 292 291 290 289 288 288 287 287 287 286 287 288 288 287 287 286 285 284 283 281 281 280 279 279 279 278 277 276 276 276 275 274 275 276 277 276 276 276 276 275 275
316 314 317 307 302 304 302 307 314 309 301 303 304 302 306 314 316 316 315 317 319 318 317 316 311 311 312 315 316 315 314 313 311 311 309 307 307 304 304 303 301 300 298 296 294 292 291 290 288 288 288 287 287 286 286 287 287 287 286 286 285 284 283 282 281 280 279 279 278 278 277 277 276 276 276 274 274 275 276 276 276 275 275 274 274 274
315 315 316 309 301 305 308 308 312 311 306 304 305 306 306 307 311 314 312 313 318 318 318 317 313 311 314 319 319 316 315 313 311 313 313 311 309 305 304 303 302 301 299 296 294 292 291 289 288 287 287 287 286 286 286 286 286 286 286 285 285 283 282 281 280 279 279 278 278 277 276 276 275 275 274 274 275 276 276 276 275 275 274 274 273 273
316 317 316 314 310 310 311 307 306 310 309 306 307 308 307 307 311 314 312 312 314 316 319 319 314 310 313 318 320 319 319 316 313 314 314 314 314 310 306 303 302 301 299 296 294 292 291 289 287 287 286 286 286 285 285 285 285 285 285 285 284 283 281 281 279 278 278 277 277 276 275 275 275 274 273 274 275 276 276 275 274 274 273 273 273 272
319 320 316 316 316 311 306 302 301 305 308 308 308 308 307 307 310 314 313 313 313 312 313 314 314 312 313 317 321 321 322 320 317 315 315 315 314 311 308 304 300 299 298 295 293 291 290 288 287 286 286 285 285 285 284 284 284 284 284 284 283 282 281 280 278 278 277 277 276 275 275 275 274 274 273 274 275 275 275 274 274 274 274 273 272 271
317 318 314 314 317 312 304 301 301 303 306 309 310 308 307 307 308 312 313 312 314 313 311 314 314 311 312 320 323 322 322 319 313 311 313 315 312 308 308 306 301 297 295 294 292 291 289 288 286 286 285 285 285 284 283 283 283 284 284 283 282 281 280 279 277 277 277 276 275 275 274 274 273 273 274 275 275 275 274 274 274 274 272 271 270 269
314 318 317 315 317 316 311 307 307 307 307 309 311 308 306 307 307 310 310 309 312 312 311 313 313 310 313 318 316 316 315 312 308 306 307 309 308 305 306 306 302 296 294 293 292 290 289 288 286 286 286 285 285 284 283 282 283 283 283 282 281 280 279 277 277 276 276 275 275 274 274 273 273 273 274 274 274 274 274 274 273 272 271 270 269 268
315 319 316 313 315 315 312 310 313 314 308 306 310 309 306 307 308 309 310 310 310 311 310 312 312 310 311 312 311 311 311 309 308 307 303 302 302 302 303 304 301 296 294 293 291 290 289 288 287 286 286 285 285 284 282 282 282 282 282 281 280 279 278 277 276 275 275 274 274 274 274 273 272 273 273 274 274 274 273 273 271 271 270 269 268 267
319 319 314 313 314 311 310 309 313 316 312 309 311 310 307 307 307 308 311 311 310 310 310 311 311 311 310 310 309 309 309 308 308 308 306 305 303 301 300 300 298 295 294 292 290 289 288 287 286 286 286 285 284 283 282 282 281 281 281 280 279 278 277 276 275 275 274 274 273 273 273 272 272 272 273 273 273 273 273 271 270 269 269 268 267 266
319 317 312 313 313 310 310 310 311 314 314 312 312 310 308 307 307 308 310 310 311 311 311 310 310 311 310 309 309 309 309 309 308 308 308 308 308 306 303 299 296 295 293 291 290 289 288 288 287 286 285 285 284 283 282 281 281 280 280 279 278 277 276 275 274 274 273 273 273 273 272 271 271 272 273 273 273 273 272 270 269 268 268 267 266 266
314 314 312 313 313 311 311 310 310 311 309 309 311 311 309 307 307 308 309 309 310 311 311 310 310 311 310 308 309 309 308 308 308 308 308 308 309 309 306 301 298 296 294 291 290 289 288 288 287 286 285 284 283 282 281 280 280 279 279 278 277 276 275 274 273 273 273 273 272 271 271 271 271 272 272 272 272 272 271 269 268 267 267 266 265 265
311 312 312 312 312 312 312 310 310 310 308 308 309 309 309 307 307 307 307 308 309 309 309 309 310 310 309 308 308 308 308 308 308 307 308 308 308 308 307 304 300 298 296 293 291 289 288 288 287 286 285 284 283 282 280 279 278 278 277 277 276 275 274 273 273 272 273 272 271 271 270 271 271 272 272 272 272 271 269 268 267 266 265 265 265 265
309 311 312 312 312 313 312 311 311 310 309 309 308 309 309 308 308 307 306 307 308 308 308 308 308 308 307 307 308 308 308 307 307 308 307 307 307 307 307 306 303 300 297 294 292 289 288 287 287 286 285 284 283 281 280 278 277 277 276 275 275 274 273 273 272 272 272 272 271 271 270 270 271 272 272 272 271 270 268 267 266 265 265 265 265 265
309 310 311 311 312 313 312 312 312 311 310 309 310 310 309 309 309 308 307 307 307 308 308 308 308 308 307 308 308 307 308 308 308 308 307 307 308 307 307 307 306 304 300 296 293 290 288 287 286 286 285 284 282 281 279 277 276 275 275 274 274 273 273 272 272 272 272 271 271 270 270 270 271 272 272 271 270 269 267 266 265 264 264 264 265 265
311 311 311 311 311 312 312 312 313 313 312 311 311 310 310 310 310 309 309 309 308 308 308 309 309 308 308 308 308 308 309 309 308 307 307 307 308 307 307 307 306 306 303 298 294 291 289 287 287 286 285 283 282 280 278 277 276 275 275 274 273 272 272 271 271 272 271 271 270 270 270 270 271 272 272 270 269 268 266 265 264 264 264 264 265 265
310 310 310 311 311 312 312 312 312 314 313 313 313 313 313 311 311 310 310 310 310 309 309 308 308 308 308 309 309 309 309 308 308 308 308 309 309 308 308 307 306 305 303 299 295 291 289 288 286 285 284 283 281 279 278 277 277 276 275 274 272 272 271 271 271 271 271 270 270 270 270 271 271 271 271 269 268 267 266 265 264 264 264 264 264 264
309 309 309 310 310 311 311 311 313 314 313 312 313 314 313 312 312 311 310 310 310 310 309 309 309 309 309 309 309 309 309 308 309 308 308 310 310 308 307 307 306 304 302 299 295 291 289 287 286 285 283 282 280 278 276 276 275 274 273 272 272 271 271 271 271 271 270 270 270 269 270 271 271 270 269 268 267 266 266 265 264 264 264 264 264 264
309 309 309 309 310 310 310 311 313 314 312 311 312 311 310 310 310 310 310 310 309 309 309 309 309 308 309 309 309 309 308 308 308 307 307 309 309 307 306 306 305 304 302 299 295 292 289 287 286 285 282 280 278 276 275 274 274 273 271 271 271 270 270 271 271 270 270 270 269 269 270 270 270 269 267 266 266 265 265 265 264 264 264 264 264 263
309 309 309 310 311 311 311 311 312 312 312 311 311 310 310 310 309 309 310 310 309 309 309 308 308 308 308 308 308 308 308 308 308 307 307 309 309 306 304 305 305 304 302 298 293 290 288 286 285 283 280 278 276 275 274 273 273 272 270 269 270 270 270 270 270 270 270 269 269 270 270 269 268 267 266 266 265 265 264 264 265 265 264 263 263 263
308 309 310 311 312 312 312 312 312 313 313 312 310 309 311 313 311 311 311 310 309 309 309 309 309 308 308 309 308 308 309 309 308 308 308 309 310 307 305 303 301 301 299 295 290 287 285 284 283 280 278 276 274 273 273 273 272 271 269 268 269 269 270 270 270 270 269 269 270 270 270 269 267 266 266 265 264 264 264 265 265 264 263 263 262 263
308 308 309 310 311 312 312 313 313 313 313 312 310 311 313 314 313 312 312 311 310 309 309 309 309 309 309 309 308 309 310 310 309 309 308 309 310 308 307 302 297 294 293 289 287 285 282 280 279 276 275 274 272 271 272 272 271 270 268 268 268 269 270 270 270 270 269 269 270 270 270 268 266 264 265 265 265 263 264 264 264 264 263 263 262 263
309 308 309 310 310 311 312 312 312 312 313 312 312 312 311 311 312 315 314 313 311 311 311 310 310 310 309 309 309 310 310 309 310 309 308 307 304 301 300 298 294 291 289 285 283 282 280 277 276 274 273 272 270 270 271 271 270 269 268 268 268 269 270 270 270 269 269 270 270 270 269 268 266 264 264 265 265 265 264 264 264 263 263 263 263 263
308 309 309 309 310 310 311 312 312 311 312 312 311 309 308 309 313 315 315 313 311 315 315 312 311 310 309 309 309 309 309 308 308 308 305 302 300 296 292 290 289 287 285 282 281 279 277 275 275 273 272 271 270 269 270 270 270 268 267 268 268 269 269 269 269 269 269 270 270 269 268 266 265 265 265 265 265 266 266 265 263 263 262 262 263 263
309 309 309 309 310 310 310 311 311 311 312 311 311 309 308 310 313 314 312 311 312 314 315 314 312 310 310 309 308 308 308 307 306 306 302 299 298 294 288 286 285 282 281 280 278 276 275 274 273 272 270 269 269 269 270 270 269 267 267 267 268 268 269 269 269 269 269 270 270 269 267 265 265 265 266 265 265 266 267 266 264 263 262 262 262 262
311 310 310 309 310 310 310 311 312 313 313 311 309 308 308 310 313 312 310 312 313 312 312 312 311 310 309 310 309 308 307 306 305 304 300 296 294 290 286 284 284 282 280 278 277 276 275 273 272 270 268 267 268 268 270 270 268 266 266 267 267 268 268 268 269 269 269 270 269 268 266 266 266 266 266 266 265 266 267 266 264 263 262 262 262 263
312 312 312 310 310 311 311 311 311 312 312 310 309 308 308 308 310 311 311 311 311 311 312 311 310 309 309 311 312 309 306 305 304 302 298 294 290 288 284 282 282 281 278 277 276 275 274 272 270 268 267 266 267 267 269 270 269 266 266 267 267 268 268 268 268 269 269 269 268 267 266 266 266 266 266 265 266 267 267 265 263 262 262 262 262 263
313 313 313 312 311 312 312 312 310 310 310 309 308 309 309 308 308 310 311 311 310 311 311 311 310 309 308 310 311 309 306 304 302 300 297 293 289 286 283 281 280 278 277 275 275 274 273 270 269 267 266 266 266 267 268 270 270 267 266 267 267 268 268 268 268 269 269 268 268 267 267 267 267 267 266 265 266 266 266 264 262 261 262 262 262 264
312 312 313 313 312 311 311 311 311 310 310 309 308 309 309 309 308 309 309 310 309 310 310 311 310 309 308 307 307 308 307 305 303 299 295 292 288 284 282 281 278 276 275 275 274 272 271 269 268 267 266 265 266 266 267 269 270 268 267 267 268 268 268 268 268 268 268 267 267 267 268 268 268 267 266 266 266 266 265 263 261 260 261 262 263 264
312 312 312 313 313 313 313 313 312 311 311 310 308 308 309 309 308 308 308 307 308 308 308 309 309 309 308 307 306 307 306 305 304 300 295 291 287 283 281 280 277 276 275 274 273 271 269 268 268 267 266 265 265 265 266 267 268 268 268 267 268 267 267 268 268 268 267 266 266 267 268 268 269 268 267 267 267 267 265 263 261 260 261 262 263 264
313 312 313 312 312 313 313 312 312 312 311 310 309 307 307 308 308 307 307 307 307 307 308 308 308 308 308 307 306 306 306 305 304 301 295 291 287 283 281 279 277 275 274 273 271 269 268 268 268 267 266 265 264 264 265 265 266 267 268 267 267 267 267 267 267 267 266 265 266 267 267 268 268 268 268 268 267 266 264 264 263 262 262 263 263 265
313 313 314 314 313 313 313 312 312 313 312 312 311 308 307 307 307 307 307 307 307 307 307 307 306 306 306 306 305 305 305 305 303 300 296 291 287 283 281 279 277 275 274 272 271 269 268 268 268 267 266 265 264 263 264 264 265 266 267 267 267 267 267 267 266 265 265 265 265 266 266 267 267 267 268 268 268 266 263 262 262 262 263 264 264 266
312 312 313 314 314 314 314 313 313 313 312 312 312 310 309 307 307 307 308 307 307 307 307 307 306 305 304 304 304 304 305 304 302 299 295 292 288 284 281 279 277 275 273 272 270 269 268 268 267 266 265 264 263 263 263 263 264 265 266 266 266 267 267 266 265 264 264 265 265 265 266 266 266 266 267 267 267 266 265 265 264 262 263 264 265 266
312 312 312 313 314 313 313 313 313 313 312 311 311 312 311 310 309 309 308 308 308 307 307 306 306 306 304 303 302 302 304 304 302 298 295 292 289 285 281 278 276 275 273 271 270 269 268 267 267 266 265 263 262 262 262 262 263 265 265 266 266 267 266 266 266 264 264 264 265 265 265 265 265 265 265 265 264 263 263 265 266 266 265 264 263 264
Wind_Speed
2 1 4 7 7 8 9 9 6 5 6 5 4 4 5 5 7 6 3 4 0 1 9 9 9 14 16 16 15 8 6 11 15 11 11 12 10 10 12 14 15 16 14 13 19 24 28 30 31 31 31 30 29 28 27 25 23 20 18 18 16 15 14 13 12 10 8 6 5 4 4 4 4 5 6 6 7 8 9 10 11 13 15 16 18 19
2 4 10 9 9 7 6 6 6 5 5 4 5 4 4 5 7 6 1 4 1 2 6 5 6 15 16 14 15 9 7 15 16 13 15 16 11 10 13 16 16 13 8 9 15 21 26 29 32 33 32 33 33 31 30 28 25 22 19 18 17 16 15 14 13 11 8 6 5 4 4 5 5 5 7 7 8 9 10 11 13 14 16 17 18 20
1 7 12 7 7 5 5 5 7 6 5 3 3 2 3 4 5 6 3 4 1 2 5 6 8 17 18 15 17 14 15 19 13 12 17 15 11 12 15 16 14 12 10 10 13 18 25 29 32 33 34 36 35 33 32 30 27 24 21 20 18 17 16 14 13 11 8 6 5 4 4 5 6 6 7 9 9 10 11 12 13 15 16 17 19 20
2 8 8 5 9 8 6 4 6 5 3 3 3 3 4 3 1 4 4 3 1 2 4 7 10 15 16 14 16 14 14 15 11 12 15 11 12 15 15 13 13 15 15 14 14 15 21 26 30 33 34 35 35 34 34 32 29 27 24 21 19 18 16 14 13 10 8 6 5 5 4 5 7 7 8 9 10 11 12 14 14 15 16 18 19 20
8 6 1 6 6 8 6 3 6 5 2 3 5 6 6 4 5 5 3 3 2 1 3 6 10 11 7 8 10 6 3 9 10 10 12 10 12 12 11 12 14 16 16 16 16 15 18 23 29 33 34 34 35 35 36 35 32 29 26 22 19 17 15 14 12 10 9 7 5 5 5 5 7 8 9 10 11 11 13 15 15 16 16 18 19 21
9 5 5 7 3 5 6 4 5 7 3 3 6 10 10 7 6 3 3 4 4 3 3 5 8 8 1 2 8 3 2 7 6 8 12 11 10 9 10 12 13 14 14 15 15 15 17 23 28 31 32 34 36 37 38 37 34 31 27 23 19 17 15 14 12 11 9 8 6 6 6 6 7 10 10 10 11 13 14 15 17 17 17 18 20 21
3 1 4 6 5 4 4 5 6 8 5 2 4 7 8 5 3 1 2 2 0 3 3 4 2 9 4 3 6 4 6 9 6 10 14 10 8 10 12 12 12 12 12 13 13 14 17 22 26 29 33 36 37 38 38 37 35 32 28 23 20 17 15 14 13 11 10 9 7 7 7 7 8 11 11 11 12 14 15 16 17 18 18 19 21 22
2 4 4 5 6 5 5 6 6 9 7 3 3 4 6 6 5 4 3 1 3 2 3 0 3 8 9 5 7 6 9 12 10 13 15 10 9 11 12 12 12 13 13 12 13 15 17 22 28 31 35 38 38 38 38 38 37 33 29 25 21 17 15 14 13 12 10 9 8 7 8 9 10 11 12 12 13 14 15 17 18 18 19 20 22 23
4 5 6 6 5 5 6 5 7 11 6 4 3 5 6 6 5 4 4 2 2 3 4 4 4 5 11 5 1 1 6 11 12 15 16 11 10 11 12 13 13 13 12 12 14 15 17 23 31 34 35 36 37 37 39 40 37 33 30 26 21 17 15 14 13 12 10 9 9 8 9 10 11 11 12 13 14 15 15 17 18 19 20 22 23 24
2 4 7 8 6 6 4 1 3 7 4 3 5 6 6 5 5 4 3 2 1 2 7 8 8 5 11 4 4 3 3 9 11 12 13 10 8 9 11 12 12 10 9 11 14 15 18 24 30 31 32 34 35 37 39 39 37 34 31 26 22 18 15 14 13 12 11 10 9 9 9 11 11 11 12 13 15 16 16 18 19 19 21 24 25 26
1 1 2 4 4 5 5 3 2 2 4 5 6 5 6 5 4 3 1 3 1 5 8 9 13 10 9 3 7 4 5 8 9 8 10 8 7 9 10 10 9 8 9 10 12 12 15 21 25 28 30 32 34 35 37 38 37 35 32 28 23 18 15 15 13 12 11 10 10 10 10 11 11 10 12 14 16 16 17 19 20 21 23 25 26 27
2 0 2 2 3 5 6 5 4 3 4 5 4 4 3 3 3 4 3 3 1 7 5 4 9 10 10 6 4 6 6 7 9 8 9 9 9 9 8 8 8 8 9 9 9 9 10 14 19 25 29 30 32 34 37 38 37 36 32 28 23 18 16 15 14 13 11 11 11 10 10 10 10 10 12 14 16 16 17 19 21 23 26 28 29 29
2 4 3 1 2 4 6 5 3 4 2 4 4 5 3 4 3 3 3 1 3 7 3 2 3 5 12 10 6 8 10 10 11 10 9 9 9 8 7 7 6 6 8 8 8 8 9 11 14 21 26 28 32 35 37 37 37 35 33 29 24 20 17 16 15 13 12 12 11 10 10 10 9 10 12 13 15 16 17 19 20 23 26 28 30 31
3 4 1 3 2 3 8 6 2 2 3 5 5 4 3 1 1 3 4 2 5 7 2 3 3 4 9 7 11 17 17 16 14 11 10 8 9 8 4 4 5 6 7 7 7 9 10 11 14 20 25 28 31 34 35 36 36 35 33 29 25 20 17 16 15 14 13 12 11 10 10 9 9 10 12 13 15 16 17 18 20 23 26 28 31 33
4 7 4 6 3 5 10 7 4 6 5 4 4 5 5 5 4 5 4 4 7 6 3 1 2 4 4 3 8 14 13 14 13 10 8 7 9 6 3 3 5 6 7 6 8 10 11 12 15 20 24 27 30 32 34 35 36 35 33 30 25 20 18 17 16 15 14 13 11 10 9 8 9 10 12 13 14 16 17 19 21 24 26 28 31 34
4 8 5 2 1 6 8 3 4 7 4 2 2 4 3 5 5 3 3 4 1 5 5 3 4 6 4 2 4 4 4 10 13 10 7 10 11 6 4 7 6 6 7 7 8 10 10 11 16 20 23 26 28 31 33 35 37 36 33 30 26 21 19 18 16 15 14 13 11 10 9 8 9 10 12 13 14 16 18 20 22 25 27 29 32 34
2 6 2 2 2 3 4 2 2 3 3 3 2 3 4 4 5 2 3 1 4 3 7 2 5 10 6 5 5 4 5 10 11 7 8 13 11 6 6 8 7 8 8 7 9 9 8 10 15 20 23 26 29 32 34 36 37 37 34 31 26 21 19 18 17 15 14 12 11 9 8 8 9 10 11 13 15 17 19 21 23 25 28 29 31 34
3 4 3 3 2 2 1 2 2 2 3 6 4 5 3 2 3 2 2 3 2 4 6 4 9 15 12 8 0 5 7 13 11 9 11 12 10 8 9 9 10 9 7 7 8 8 8 10 15 21 25 28 32 34 35 37 37 37 35 32 27 23 21 19 17 15 13 12 10 8 8 7 8 10 11 13 15 17 19 22 23 25 28 30 31 33
4 4 5 2 2 0 2 2 2 3 2 5 3 3 3 3 2 2 2 3 3 4 6 11 15 16 15 8 2 6 12 14 12 11 10 11 11 10 10 11 11 9 6 7 8 8 9 10 15 20 24 27 31 33 34 37 37 37 35 31 26 22 20 18 16 15 13 11 9 8 7 7 8 10 12 13 15 17 19 22 24 26 28 30 31 33
3 4 5 1 2 0 2 2 6 3 1 2 0 1 1 2 4 3 3 3 3 3 5 13 16 14 11 6 8 11 13 12 12 11 10 12 13 11 9 10 10 8 7 8 8 9 10 11 15 21 24 27 30 32 34 36 37 36 33 29 24 21 19 17 16 14 11 9 8 7 7 7 8 10 12 14 15 17 19 22 23 25 28 29 31 32
3 3 5 1 3 1 3 6 8 9 7 4 3 3 2 1 2 1 1 2 4 4 3 6 12 16 7 8 10 11 10 11 12 10 9 11 11 10 10 10 9 8 8 8 9 9 10 10 13 20 23 26 28 30 33 36 36 35 32 28 24 22 20 17 15 13 10 8 7 7 7 7 9 10 12 13 15 17 19 21 22 25 27 29 31 32
3 3 5 3 2 5 6 4 2 5 8 9 8 8 9 6 4 1 4 3 3 3 5 4 10 19 6 7 6 7 7 9 11 11 10 9 11 11 10 10 9 8 9 9 9 9 8 8 11 17 21 24 27 29 32 34 35 34 32 28 24 22 19 17 14 12 9 7 7 6 6 7 9 10 12 13 15 17 19 20 22 24 27 29 31 32
3 2 3 6 6 5 5 2 0 2 5 6 5 6 7 6 6 6 8 5 2 2 3 4 6 18 6 7 3 6 8 9 10 11 10 9 10 10 8 8 8 8 9 8 7 7 7 7 11 16 20 23 26 28 31 33 34 33 31 27 24 22 19 16 13 11 8 7 6 5 6 7 8 10 12 13 15 17 18 20 23 25 27 29 30 31
2 2 3 6 6 3 4 3 2 2 3 3 4 4 6 8 9 8 6 3 3 5 3 4 6 19 9 5 4 5 5 7 7 7 9 8 7 6 7 7 7 8 8 7 6 6 5 7 11 14 17 21 25 27 30 32 32 32 29 27 24 21 17 15 12 10 8 6 5 5 6 7 8 9 11 13 15 16 18 21 24 26 27 28 29 30
4 3 4 4 5 5 4 2 3 4 1 4 4 5 8 11 10 4 1 1 3 6 8 5 10 19 11 2 4 3 5 7 6 5 7 7 5 5 6 7 8 8 7 6 6 6 7 9 11 12 15 20 23 26 29 31 31 31 29 26 24 20 17 14 12 10 8 6 4 5 5 6 7 9 11 13 15 17 19 22 24 25 26 28 29 29
6 5 7 7 9 11 11 8 3 2 3 2 2 6 11 15 15 8 3 6 8 6 10 8 15 20 17 11 9 9 10 12 9 5 5 6 7 7 7 8 9 7 8 8 8 8 9 10 10 11 14 19 23 26 28 30 30 30 28 25 22 19 17 14 11 10 8 5 5 5 4 6 8 9 11 13 15 18 20 22 24 26 26 27 29 30
3 4 10 13 15 14 15 14 5 7 5 5 7 11 14 18 19 12 8 10 8 5 7 18 24 22 21 23 23 20 20 20 15 8 6 7 8 9 9 10 9 7 8 8 7 8 9 10 11 12 14 19 22 24 27 29 30 29 27 25 21 18 16 14 12 10 7 6 5 4 4 6 8 9 11 13 16 18 20 22 23 25 27 26 27 29
2 5 12 18 20 19 20 20 9 8 7 10 10 13 16 17 17 16 16 17 8 5 12 24 24 18 20 27 29 27 26 23 16 13 11 9 9 9 9 9 7 7 8 7 8 11 12 12 12 12 14 18 22 23 25 27 29 29 28 25 21 18 16 14 12 9 7 6 4 3 4 6 7 9 11 13 16 18 20 22 23 24 26 27 27 28
3 7 13 16 19 19 19 21 11 7 8 10 9 14 18 17 18 20 22 22 16 14 19 20 16 15 21 28 29 28 27 21 15 15 14 11 9 8 8 8 8 9 10 10 11 13 13 13 13 13 14 17 21 24 25 27 27 28 26 24 21 18 16 14 12 9 7 5 3 2 4 6 7 9 11 13 16 18 20 21 23 24 25 26 26 27
3 6 12 12 13 14 16 18 10 5 11 14 11 16 20 17 17 19 23 27 28 26 22 19 16 18 24 28 25 24 24 17 12 15 17 16 15 12 12 11 9 10 12 12 14 14 14 14 13 14 14 16 20 25 27 27 28 28 26 24 21 19 16 14 12 9 7 5 3 3 4 5 7 9 11 13 15 18 19 20 22 23 24 25 25 26
3 6 9 6 7 12 17 18 11 9 15 18 16 23 26 15 11 18 25 26 25 22 20 20 20 20 24 24 20 21 22 17 15 20 22 21 18 16 17 14 11 12 13 13 14 13 12 12 12 13 15 17 22 26 27 27 28 28 27 24 22 20 17 14 12 9 7 5 3 2 3 5 7 9 11 13 15 17 19 20 21 22 23 24 25 26
4 5 4 3 6 12 17 16 11 10 11 12 18 29 27 14 12 20 24 20 16 15 17 19 17 18 21 18 14 17 16 13 17 21 20 18 15 14 16 16 14 13 13 12 13 12 12 13 14 16 17 18 23 26 27 28 29 28 27 26 23 21 17 14 12 10 7 5 3 2 3 5 7 9 11 13 15 16 18 19 20 22 23 24 25 26
4 4 3 5 7 12 16 13 5 4 4 9 16 21 20 17 19 22 24 21 15 11 13 16 16 19 21 16 17 19 13 10 15 18 17 15 13 13 16 16 15 13 12 12 13 13 14 15 15 17 18 21 26 28 29 33 33 30 29 27 24 21 18 15 12 10 8 5 3 1 3 4 7 9 10 12 14 16 17 19 20 21 22 24 25 25
5 7 7 7 8 11 11 4 4 5 10 11 6 7 12 17 20 23 25 24 16 11 14 17 19 23 23 21 23 22 17 15 17 20 18 11 9 15 17 13 11 13 12 11 11 12 14 13 12 15 20 24 27 29 30 33 33 31 30 27 24 21 18 16 13 10 8 5 3 1 2 5 7 8 10 12 14 15 17 19 20 21 22 24 25 25
9 10 9 7 7 7 2 5 4 9 12 6 2 5 12 13 16 21 23 20 15 16 21 21 22 26 27 27 25 20 19 20 19 24 21 9 9 17 17 12 12 13 12 10 11 11 12 12 12 14 20 25 29 31 32 32 32 31 29 26 23 21 18 15 13 10 8 5 3 1 2 4 6 8 10 11 13 15 17 18 20 21 22 24 25 26
13 10 8 6 6 3 3 6 10 7 4 6 9 14 13 10 12 14 15 14 13 17 22 21 22 26 27 27 22 18 21 18 14 22 19 9 12 17 14 13 15 13 12 11 11 12 13 16 18 19 23 28 32 34 34 34 34 32 28 25 23 21 18 15 13 10 8 5 3 1 2 4 6 7 9 11 13 15 17 18 20 21 22 24 26 27
15 11 7 7 8 5 6 10 9 6 8 11 16 19 13 9 10 9 9 13 14 19 21 18 20 25 24 23 21 19 17 11 10 20 16 9 13 16 12 14 16 11 10 10 10 13 16 20 23 25 28 31 34 36 37 36 35 32 28 25 22 20 18 15 12 10 7 5 3 1 3 4 5 6 8 11 13 14 17 18 20 22 22 24 27 27
17 14 11 9 7 7 9 9 6 7 9 12 22 25 12 8 10 9 6 11 17 24 23 17 21 26 23 21 21 14 7 6 10 18 13 6 11 12 10 12 12 8 7 6 7 10 15 21 24 28 33 33 33 36 38 37 35 32 29 25 23 20 18 15 12 10 7 5 3 2 3 3 4 6 8 10 12 14 16 18 20 22 22 23 26 28
18 14 12 11 7 7 9 8 8 10 9 13 23 21 6 9 9 6 0 10 20 26 23 18 21 23 21 21 18 8 3 5 12 16 12 6 9 8 8 9 7 4 4 8 12 14 18 23 27 30 33 33 32 35 38 37 34 32 29 26 23 21 18 16 13 10 8 5 4 3 2 3 4 5 7 10 12 13 16 18 20 22 22 23 25 27
15 11 10 11 10 11 12 10 8 7 7 13 18 10 5 10 9 7 2 14 20 19 16 16 18 20 20 18 12 8 8 10 13 12 7 4 4 3 5 6 5 5 5 8 13 19 25 31 33 32 32 34 36 37 37 36 32 29 28 26 24 21 18 16 13 10 8 6 4 3 2 3 4 5 7 9 12 14 15 17 19 21 23 24 25 26
8 8 9 11 13 15 14 12 10 6 6 13 12 6 10 9 7 3 11 18 17 10 9 13 16 17 16 13 9 9 11 14 14 8 2 5 4 2 3 4 5 7 8 10 16 24 31 35 38 37 35 37 39 38 36 35 31 27 27 26 24 21 18 16 13 11 9 7 5 3 2 3 4 5 8 9 12 14 15 17 19 21 22 24 25 25
4 6 7 9 11 12 12 13 9 6 10 13 8 11 10 5 4 12 17 17 13 7 7 11 13 12 12 12 11 11 12 14 11 5 4 6 7 6 6 7 7 7 8 13 21 29 28 26 29 33 33 34 38 38 37 35 30 27 26 24 22 21 18 15 13 11 9 8 5 4 3 4 4 6 8 10 12 14 15 17 19 20 21 23 23 22
9 6 6 8 8 7 9 10 8 7 11 13 10 8 8 11 13 16 16 13 12 10 9 9 10 10 11 11 11 12 13 12 9 8 8 8 7 7 8 9 9 9 9 12 20 27 27 22 23 29 30 32 35 37 37 35 31 28 26 23 21 20 18 15 14 12 10 8 6 4 4 4 5 7 9 11 12 14 15 17 19 20 21 21 22 21
10 8 6 7 8 7 8 9 9 10 11 15 15 11 15 19 19 16 14 13 13 12 8 7 9 11 11 11 12 13 13 12 10 10 10 8 8 9 9 10 11 10 10 13 19 26 29 25 22 24 28 30 33 34 35 35 33 29 25 22 22 21 18 16 14 12 10 8 6 5 5 5 6 7 9 11 13 14 15 17 19 21 21 20 20 20
12 14 13 11 10 11 12 12 10 10 11 14 17 18 21 24 23 20 17 14 12 11 8 8 10 11 10 12 12 11 12 13 13 12 11 10 10 10 9 10 11 10 9 13 20 27 31 31 28 25 24 26 30 31 31 33 34 30 25 23 24 22 19 17 15 13 11 9 7 5 5 5 6 8 10 12 13 15 16 17 19 20 20 20 20 19
15 19 17 12 10 12 15 14 11 12 14 16 18 20 20 19 19 20 19 14 11 13 11 8 9 9 10 11 10 10 12 14 13 11 10 9 9 9 9 9 11 11 10 11 17 25 32 34 31 27 23 23 27 29 28 29 31 30 27 26 25 22 20 18 16 13 11 9 7 6 5 6 7 9 10 12 14 15 15 16 17 17 18 18 19 20
13 17 15 12 12 13 13 14 16 19 20 19 18 18 18 17 16 15 14 13 14 18 15 9 8 9 8 10 12 14 15 13 11 10 9 9 9 11 11 10 10 9 9 12 22 33 36 29 20 17 18 20 26 29 27 26 27 27 28 28 26 23 20 18 16 14 12 10 8 7 6 6 7 9 11 13 15 15 14 15 15 16 17 17 19 22
10 14 15 16 17 17 17 17 19 20 20 17 15 13 14 18 18 15 14 15 16 16 13 8 8 9 8 10 14 15 15 12 12 11 11 10 9 10 11 11 11 10 10 17 30 38 34 20 13 14 17 21 27 31 28 26 26 27 28 28 25 24 22 19 17 15 13 11 10 8 8 8 8 9 10 13 16 16 14 14 15 16 16 17 19 22
2 9 12 15 17 18 18 18 16 15 14 13 12 12 14 17 18 17 17 17 15 14 13 11 10 10 11 14 15 14 14 13 12 12 11 10 10 11 11 10 10 9 10 19 34 41 34 23 19 21 21 24 31 33 29 27 27 27 28 27 25 24 23 20 19 16 14 12 11 10 9 9 9 9 10 12 15 16 14 12 13 14 16 17 18 19
4 6 7 8 12 13 12 13 13 13 13 13 16 17 18 17 16 16 17 16 15 16 18 17 15 12 12 14 13 12 13 14 12 12 12 11 13 14 13 12 11 7 10 22 34 39 37 35 35 33 29 29 33 33 30 29 29 28 28 27 25 24 23 22 21 18 15 13 12 11 10 9 9 9 10 12 13 16 17 14 11 9 11 16 18 18
9 11 9 9 13 12 11 11 11 11 13 15 17 18 17 14 14 17 18 18 18 19 18 18 18 16 15 15 13 12 15 17 13 13 13 13 13 13 15 18 16 11 14 23 25 23 24 32 37 36 32 33 35 34 32 32 30 29 28 27 25 24 23 22 22 19 17 15 13 12 11 9 9 9 10 11 11 14 17 18 16 12 10 13 17 19
Wind_Direction
99 174 232 221 210 207 209 198 188 177 146 140 150 181 221 233 266 254 229 281 158 210 264 244 244 259 260 264 266 252 196 232 245 237 239 237 222 214 217 223 221 224 228 214 209 209 208 206 201 197 196 196 197 197 198 196 197 198 196 197 199 200 203 207 210 214 218 224 236 253 270 292 320 312 299 306 312 313 317 320 323 326 329 333 338 339
94 207 239 224 204 198 196 174 134 120 119 115 152 199 253 225 253 269 270 316 339 176 267 287 282 268 262 261 263 251 219 240 238 226 239 236 222 218 220 226 224 226 224 198 206 208 205 205 201 198 196 195 195 195 196 198 198 196 196 198 199 200 204 207 210 213 218 225 238 255 275 300 315 305 298 307 310 310 315 320 320 322 326 331 337 338
59 237 245 214 161 115 87 126 126 121 124 113 134 169 262 237 265 296 346 356 1 179 273 306 296 275 268 261 256 242 232 249 240 214 234 234 219 222 222 226 224 222 218 203 206 204 202 203 200 198 198 197 197 196 197 199 198 195 195 197 197 201 204 205 209 213 219 228 240 258 278 300 307 301 297 303 306 310 317 321 320 321 326 331 336 337
208 254 256 177 140 114 82 106 118 107 122 147 145 171 247 243 258 286 308 336 245 191 282 293 282 273 269 259 255 247 237 254 254 225 236 230 217 225 224 222 219 217 217 211 208 203 200 201 200 200 199 198 197 196 197 198 196 196 197 197 197 200 203 205 209 213 219 227 240 260 281 294 295 294 293 297 302 309 316 319 319 323 327 331 334 335
228 245 159 114 128 123 119 143 140 146 229 239 195 203 234 235 220 237 287 326 317 354 334 309 292 276 262 245 253 273 278 265 258 243 246 234 224 233 231 226 220 217 216 211 209 203 198 201 202 202 200 198 197 197 198 198 197 198 199 199 197 199 202 204 208 211 217 225 236 252 272 283 285 287 286 288 297 306 309 311 316 320 324 328 332 332
249 235 127 115 109 113 136 188 191 174 205 292 232 216 223 230 231 251 353 4 358 335 334 2 321 288 278 222 255 289 315 262 256 254 251 238 226 229 234 232 223 221 219 214 211 203 201 204 203 203 201 199 199 200 200 199 200 201 200 198 196 198 201 203 207 210 215 223 233 244 256 265 272 280 281 282 292 301 305 307 313 318 323 327 329 330
262 335 102 131 146 151 176 235 226 172 149 286 251 211 207 200 188 165 40 30 317 263 302 45 323 279 278 188 241 254 255 258 263 266 260 246 225 219 228 232 223 222 218 215 212 203 203 203 201 203 203 201 201 200 200 200 201 201 199 197 197 198 200 202 205 210 216 224 234 246 254 261 266 275 284 292 297 303 308 310 313 318 324 328 328 328
136 82 73 118 133 158 200 246 221 158 139 238 244 130 138 142 153 161 115 139 236 274 319 310 180 274 277 229 230 233 247 270 276 269 268 254 230 222 227 231 223 220 214 209 210 206 205 203 202 204 203 202 202 199 198 199 201 200 197 197 196 197 200 202 205 210 219 226 235 246 253 260 264 272 287 298 301 305 310 311 312 316 323 327 327 327
116 145 171 148 134 179 207 237 198 162 154 236 195 116 117 126 138 135 117 179 270 21 303 249 158 266 274 242 285 270 230 263 267 260 262 255 235 226 228 231 226 221 212 207 210 208 207 205 206 206 204 204 203 199 198 199 200 198 197 196 195 197 200 203 207 212 220 228 237 245 250 260 267 275 287 296 299 303 307 308 310 314 320 325 326 325
92 192 191 149 153 203 206 296 188 171 185 186 139 98 75 73 79 80 114 152 35 334 258 237 166 222 274 217 121 59 198 242 253 254 257 253 238 228 229 232 228 222 213 210 213 211 210 209 208 206 204 204 202 199 199 200 199 198 196 194 194 197 200 203 209 213 220 228 237 245 250 261 271 280 289 296 299 303 307 305 307 314 320 324 324 323
5 270 195 150 172 182 138 78 50 119 143 136 112 68 50 42 51 50 58 94 30 267 256 232 180 190 272 237 154 179 200 209 222 245 258 256 245 230 227 232 224 214 212 211 216 215 211 210 207 204 203 203 200 199 199 199 199 197 194 194 195 198 201 205 212 216 222 229 237 246 251 260 273 283 290 295 299 307 309 304 308 318 322 323 321 319
354 65 227 214 152 127 104 77 37 50 98 109 92 67 38 342 10 20 356 55 256 256 257 237 181 187 243 245 183 225 242 220 208 222 238 237 240 231 219 227 221 211 214 211 212 210 200 200 199 199 201 200 197 198 199 198 197 195 194 194 194 196 201 207 213 219 224 231 238 245 251 260 273 282 287 290 296 305 305 303 313 322 324 322 319 317
294 216 218 203 158 144 117 88 28 7 54 98 94 82 51 325 350 343 305 131 228 257 251 147 154 217 246 247 239 249 256 245 227 221 221 220 234 236 214 214 217 211 212 210 206 200 194 194 194 196 197 196 195 198 198 196 194 193 193 194 194 196 203 208 214 222 227 233 239 244 252 263 274 282 287 289 295 301 300 303 316 322 320 317 314 313
293 290 149 162 241 183 158 163 202 231 170 156 143 126 140 151 52 273 270 276 268 270 269 132 146 248 270 259 227 226 230 232 230 228 223 226 238 242 228 206 210 218 214 209 203 198 200 200 196 197 196 195 197 198 196 194 192 192 192 194 196 197 202 208 215 222 228 233 239 244 253 266 276 284 290 291 298 302 302 309 319 319 314 310 309 308
246 284 204 176 222 177 181 198 165 136 150 177 156 141 160 157 172 229 235 249 274 289 293 238 183 224 259 266 218 221 230 231 233 232 223 243 250 243 261 249 225 229 218 207 209 205 206 201 195 197 197 197 198 196 194 192 190 191 192 193 196 198 201 208 215 222 228 233 238 245 255 268 279 288 293 297 304 306 308 317 319 316 312 308 307 306
219 265 241 187 270 170 178 205 113 113 133 207 131 121 180 179 173 223 220 193 251 317 291 232 223 227 218 273 250 230 240 230 234 238 230 251 253 237 257 259 243 238 222 206 212 213 208 200 196 198 198 198 197 194 193 191 190 191 191 193 198 201 203 209 215 221 228 233 238 247 258 271 283 290 296 303 310 311 315 321 318 314 311 308 307 307
196 276 288 46 309 189 171 188 135 133 167 164 147 174 207 181 138 160 265 38 66 290 274 231 257 274 280 274 239 174 206 228 233 238 232 244 249 232 243 250 243 241 227 211 214 212 202 195 198 199 196 195 194 193 193 191 190 190 190 192 197 201 204 208 215 221 226 232 239 249 261 277 289 294 302 310 315 316 320 321 317 314 311 309 308 307
176 268 250 162 213 230 160 123 71 10 131 133 190 208 177 123 101 109 253 345 25 253 272 274 265 278 281 277 263 131 214 237 238 233 233 244 249 239 241 245 244 242 228 217 217 210 201 198 200 199 196 196 195 193 193 191 190 191 191 193 196 200 203 207 214 220 225 231 240 254 267 283 293 299 310 315 315 318 321 321 318 314 311 311 310 309
168 237 252 164 151 328 29 100 108 346 75 126 198 197 115 143 165 113 166 235 251 236 278 280 273 274 264 251 160 178 214 228 236 234 233 242 242 239 241 243 245 242 225 220 216 207 206 203 200 197 195 195 194 192 192 189 188 190 191 193 197 201 203 206 212 218 223 231 242 258 273 289 299 307 317 317 316 319 320 320 317 314 313 312 312 311
150 215 247 358 354 11 44 179 189 201 85 68 68 90 59 160 167 168 169 178 204 196 269 284 284 276 254 189 164 203 215 215 225 228 225 231 234 231 231 237 241 234 222 221 216 210 211 206 200 196 192 190 190 189 189 187 186 187 188 190 195 198 200 205 211 216 221 229 244 263 279 296 306 315 320 316 316 320 321 319 316 314 314 313 312 312
90 216 231 342 337 251 185 209 199 185 171 159 163 173 209 158 121 218 230 125 140 180 228 274 280 274 252 141 164 200 208 207 210 215 217 224 232 229 224 228 231 228 224 221 217 214 211 203 195 192 190 187 185 185 186 185 184 184 186 189 193 195 198 204 208 214 221 228 246 267 283 299 312 319 316 313 319 322 321 319 317 316 315 314 314 314
148 205 214 193 254 234 222 224 191 180 173 171 185 188 189 178 132 171 251 225 149 192 203 187 266 271 253 119 162 186 187 208 205 206 216 217 224 227 225 225 225 225 226 221 219 214 204 194 185 182 182 180 180 183 184 183 181 181 184 188 191 195 198 203 205 210 219 229 247 271 289 303 315 316 312 315 323 324 321 320 320 319 318 316 316 316
129 128 215 232 239 240 256 293 311 212 157 159 203 192 177 172 149 177 227 229 156 211 211 113 266 267 255 99 144 174 174 207 205 202 214 218 222 226 228 234 232 230 233 227 218 209 195 185 177 176 177 179 181 183 182 180 179 180 183 186 190 194 196 200 203 206 215 231 252 275 295 308 313 310 312 320 325 324 325 324 324 324 321 319 318 318
98 114 203 252 275 323 348 354 337 344 92 150 235 182 168 195 195 202 217 182 170 206 178 97 254 261 270 90 144 193 200 227 224 210 218 224 229 235 239 243 239 236 238 230 214 200 180 172 172 175 180 182 184 183 181 179 178 179 182 185 189 192 193 196 199 204 214 228 252 281 298 308 311 308 315 326 327 327 329 328 327 325 322 319 317 316
178 176 171 229 279 291 297 321 349 335 277 213 229 173 191 212 209 223 21 98 230 197 156 158 245 258 269 97 138 217 247 247 238 217 227 236 237 237 239 242 239 235 234 224 207 187 176 179 182 184 186 185 185 183 180 178 176 177 180 183 187 187 188 193 196 202 212 223 250 278 292 303 311 315 325 332 331 331 332 329 326 324 319 317 317 316
179 182 172 198 232 241 249 248 233 229 206 221 218 176 197 209 203 204 211 219 230 177 147 195 244 255 266 271 262 260 259 256 245 216 222 238 237 235 236 239 236 229 225 220 205 189 187 191 191 190 189 187 186 183 180 176 175 176 178 181 185 185 185 190 195 199 208 221 248 267 283 304 315 324 333 336 335 334 331 327 324 323 321 319 318 318
161 193 195 211 225 230 246 251 205 130 154 200 202 194 202 209 206 204 225 231 217 150 183 228 240 253 269 276 275 271 267 266 265 255 243 238 237 235 236 238 232 220 223 218 200 193 196 198 196 193 190 188 186 183 179 176 173 174 175 177 180 183 184 187 193 198 205 219 240 263 292 310 317 327 335 338 337 334 328 323 321 321 321 321 319 318
130 224 216 222 232 233 246 253 218 150 198 213 197 206 213 211 204 204 225 232 201 159 230 238 241 255 268 268 269 271 270 271 276 278 271 262 252 242 237 238 224 216 222 210 199 202 201 200 197 193 189 186 183 181 178 175 174 174 174 175 177 182 184 186 190 193 200 213 229 262 297 309 318 331 338 339 335 330 325 322 320 319 321 322 320 318
163 233 229 229 240 241 249 258 237 181 236 235 204 218 224 213 203 207 225 233 220 220 240 244 242 246 254 258 261 266 271 276 284 284 280 274 264 252 243 234 214 215 219 207 207 209 203 202 197 190 189 183 179 179 176 173 172 171 171 173 176 181 184 186 188 190 198 206 218 259 288 308 325 337 339 337 331 326 322 320 319 320 320 320 320 319
168 241 242 240 255 257 257 260 243 201 251 256 240 239 239 225 209 214 228 234 232 236 249 258 255 248 251 256 260 267 274 284 294 289 285 279 273 267 262 247 224 223 222 212 214 213 204 203 196 187 185 181 179 180 175 170 168 167 168 171 175 180 183 186 186 186 191 193 207 260 290 315 330 341 341 335 329 323 321 320 319 320 320 320 321 320
201 234 245 257 278 267 262 267 258 229 244 255 257 254 250 235 210 225 234 237 241 248 257 264 264 259 256 258 264 273 279 286 287 280 279 278 277 276 273 263 241 231 227 218 217 213 204 199 191 184 186 185 184 180 174 169 165 165 167 169 174 180 181 182 182 180 182 184 201 258 304 325 334 343 340 332 327 323 321 320 320 320 320 322 322 322
211 230 252 279 275 263 265 274 264 235 239 252 254 255 254 240 221 237 242 240 241 249 258 262 262 259 261 265 267 265 265 268 269 269 271 272 272 270 268 267 257 243 233 224 217 208 199 195 189 188 190 186 182 179 173 167 163 163 167 170 174 179 178 177 177 173 173 177 189 257 310 326 337 344 340 331 326 323 323 323 321 321 323 324 324 324
195 216 243 245 253 261 264 265 240 180 225 250 246 249 253 247 243 250 257 254 240 229 248 257 255 260 268 275 272 264 255 247 254 260 265 268 271 265 259 258 257 250 237 224 215 203 197 196 193 191 189 183 181 179 173 167 164 165 168 171 174 176 174 174 173 168 166 173 184 244 308 330 343 345 338 331 327 325 325 324 323 325 327 326 326 324
203 220 240 238 245 257 255 231 124 175 232 246 237 216 230 241 246 250 257 259 248 228 237 247 256 266 271 268 266 268 268 263 262 265 263 254 257 266 262 254 248 247 242 226 212 205 199 195 192 187 184 181 178 174 170 167 166 166 168 170 171 172 172 170 168 164 162 164 178 230 312 340 349 345 336 331 330 328 328 327 326 329 331 329 327 324
223 225 234 232 242 253 205 126 184 224 230 247 312 238 232 236 242 248 257 262 256 247 246 246 252 260 262 263 265 270 272 269 269 272 267 231 227 261 268 263 250 241 239 228 209 203 193 183 181 179 177 175 170 166 165 164 163 162 164 167 168 169 170 166 161 161 160 160 176 229 335 352 351 342 334 333 332 330 331 332 330 331 333 330 326 323
227 227 227 221 229 236 136 190 225 243 274 313 295 266 249 234 238 255 268 266 251 246 248 246 248 252 256 263 268 269 271 274 276 275 267 217 224 252 254 255 256 243 234 228 206 196 189 182 181 176 170 168 164 163 162 161 160 159 160 165 167 165 165 162 158 159 159 157 170 189 6 359 350 341 335 334 334 334 335 335 333 334 334 330 326 324
221 222 223 221 218 214 218 226 238 283 303 289 269 256 238 211 218 234 258 262 254 248 245 242 249 253 254 259 262 265 275 291 292 278 267 207 225 248 235 238 254 246 230 224 199 190 186 179 175 168 162 160 161 161 160 158 159 158 156 161 165 163 162 161 160 160 158 158 159 90 23 1 348 342 339 337 335 335 337 337 336 337 335 329 325 324
217 216 217 223 213 210 233 242 240 250 252 245 248 249 232 179 189 194 226 265 262 255 249 240 244 252 253 253 254 256 281 301 276 275 275 209 218 241 231 233 247 241 218 195 167 166 165 161 160 159 157 156 157 160 159 157 158 156 155 159 163 162 162 162 161 160 157 157 143 79 31 6 352 344 341 340 337 336 339 340 338 337 335 330 324 322
216 215 218 229 225 216 232 237 228 230 230 234 247 253 222 155 162 135 77 267 257 253 248 237 238 244 246 249 247 227 209 255 256 266 272 234 215 227 228 231 234 212 180 162 155 153 150 150 150 151 153 152 153 158 159 158 157 156 155 158 161 161 162 163 162 160 154 146 122 82 43 8 0 351 346 344 342 341 343 343 340 338 335 331 325 322
213 209 215 224 226 225 230 234 236 237 237 244 250 249 150 142 128 87 320 261 256 249 235 224 230 233 233 238 236 205 203 228 243 255 257 206 181 192 204 203 180 158 153 152 152 150 148 147 147 149 154 155 155 158 159 157 156 154 155 158 160 162 163 162 159 156 150 137 115 94 63 26 13 1 355 351 349 349 349 346 343 339 336 333 330 325
206 204 209 215 222 225 225 232 241 235 237 249 244 184 139 125 102 140 239 251 256 243 198 200 220 226 222 218 207 203 217 225 232 243 168 138 146 138 148 147 137 141 146 148 148 146 146 150 152 154 156 157 156 157 158 157 155 153 155 158 160 163 163 160 156 152 144 131 117 111 78 46 31 14 6 1 357 354 354 351 346 341 337 334 331 326
181 190 210 213 219 223 223 232 243 234 232 234 199 150 153 163 202 227 237 250 260 244 196 202 216 216 210 206 201 211 226 227 226 222 180 174 174 160 149 136 121 117 125 139 146 144 144 148 151 149 151 155 157 158 159 158 153 152 155 157 160 163 160 157 153 146 136 129 125 116 89 62 42 23 14 9 4 358 355 354 349 344 340 337 332 327
180 180 204 201 204 219 224 226 232 233 222 202 163 146 186 210 226 238 246 259 264 251 233 225 224 214 205 202 206 217 229 230 222 214 209 196 171 161 163 156 146 140 135 142 149 150 148 147 147 147 151 157 158 159 161 158 152 152 155 156 160 162 158 154 151 141 133 133 130 114 91 68 47 31 19 12 8 2 357 354 350 346 343 339 333 328
177 181 210 201 190 203 219 214 214 229 215 179 167 187 209 212 223 238 243 249 256 252 238 224 229 221 199 193 206 217 225 228 222 215 211 200 182 176 171 163 159 154 148 151 156 156 151 146 144 146 152 158 159 160 163 160 153 151 153 156 160 161 155 151 146 138 136 137 130 114 93 70 51 36 25 17 11 6 1 357 350 345 344 341 335 326
185 196 221 225 202 204 221 220 210 223 220 192 193 212 219 217 223 232 235 238 247 249 234 218 229 226 200 197 209 214 219 224 220 212 206 198 188 178 170 168 164 154 145 149 155 158 155 150 146 143 147 157 161 161 164 164 156 150 152 158 160 157 153 150 143 138 140 140 131 116 94 73 55 38 27 20 15 12 5 356 347 342 342 341 335 325
205 210 223 232 221 219 229 228 215 220 223 212 212 221 225 223 223 230 238 239 241 246 239 222 226 223 203 202 211 218 226 227 219 211 204 193 183 173 166 165 160 152 146 144 149 154 152 148 145 142 141 153 162 163 165 165 159 153 155 160 160 155 150 147 142 140 142 140 131 118 95 75 57 39 26 19 18 18 10 356 343 338 338 338 334 328
219 221 227 231 227 228 231 221 216 224 226 220 219 224 231 235 230 228 234 235 238 246 245 235 232 222 198 194 208 223 231 225 211 209 199 182 182 179 170 165 160 153 155 154 153 153 151 147 146 145 141 150 163 166 165 164 161 158 157 158 157 152 149 145 142 143 144 139 131 117 96 78 58 39 25 18 17 18 14 2 349 340 337 335 331 326
215 214 221 228 227 232 237 229 226 233 233 227 223 219 225 237 237 230 229 231 236 246 249 238 224 213 200 203 210 222 231 222 208 204 194 182 186 184 176 173 163 152 154 156 155 155 154 151 151 150 147 153 164 167 165 162 162 161 158 157 155 151 147 144 144 145 144 137 127 112 95 78 60 42 28 19 14 13 12 7 357 346 339 336 331 325
230 205 218 231 232 236 245 243 244 252 253 246 240 228 222 232 236 233 235 237 241 250 254 243 224 213 216 223 221 221 228 228 216 200 190 184 183 182 182 176 160 151 157 161 161 162 162 159 155 153 151 155 162 164 163 161 162 162 160 157 155 151 147 146 146 146 142 136 126 111 97 82 65 49 37 25 14 8 7 5 357 346 339 340 339 333
303 255 246 251 245 242 245 239 236 244 249 247 244 238 232 232 235 237 241 242 240 241 244 245 241 233 228 232 230 220 225 231 220 195 188 190 190 187 181 167 158 155 158 161 164 166 165 163 159 156 154 156 160 161 161 162 163 163 161 158 154 152 150 149 148 146 141 135 126 113 102 89 74 59 47 36 20 7 3 3 4 359 344 339 341 341
248 252 251 253 253 251 250 242 234 240 248 248 247 247 243 236 233 236 239 239 237 236 237 240 242 240 237 237 227 212 220 229 214 189 192 199 192 181 173 169 168 165 158 158 161 163 165 165 161 156 153 156 159 160 160 162 163 163 162 160 155 153 154 153 151 148 142 136 128 117 108 94 81 71 58 47 32 13 3 359 3 16 16 356 349 349